User: anonymous   Login
Location: NJAA Observatory
(40.6819°N, 74.8979°W)
Time: 05:12:17
(UTC-04:00)
Language:

Cosmos 1939 Rocket - Orbit

View from above orbital plane
View from above orbital plane
View from above satellite
View from above satellite

Ground track
Ground track

The orbit data is extracted from the following two-line orbital elements,

1 19046U 88032B   16145.69242843  .00001306  00000-0  10313-3 0  9997
2 19046  97.5817 196.5003 0037869 215.9885 143.8790 15.01895276514325
Epoch (UTC): 24 May 2016 16:37:05
Eccentricity: 0.0037869
inclination: 97.5817°
perigee height: 535 km
apogee height: 587 km
right ascension of ascending node: 196.5003°
argument of perigee: 215.9885°
revolutions per day: 15.01895276
mean anomaly at epoch: 143.8790°
orbit number at epoch: 51432

The dashed part of the orbit path shows where the satellite is in the earth's shadow,  

DLR